Somerville, NJ

9:20 PM EDT on March 22, 2017 (GMT -0400)
Somerset

Weather History for KSMQ - August, 2014

Change the Weather History Date:

Thursday, August 7, 2014

  Actual Average Record
Temperature  
Mean Temperature 70 °F -  
Max Temperature 84 °F 84 °F 99 °F (1944)
Min Temperature 57 °F 61 °F 49 °F (1957)
Cooling Degree Days 6    
Growing Degree Days 20 (Base 50)    
Moisture  
Dew Point 54 °F    
Average Humidity 61    
Maximum Humidity 90    
Minimum Humidity 32    
Precipitation  
Precipitation 0.00 in - - ()
Sea Level Pressure  
Sea Level Pressure 29.94 in    
Wind  
Wind Speed 4 mph (NNW)    
Max Wind Speed 13 mph    
Max Gust Speed 20 mph    
Visibility 10 miles    
Events      
Averages and records for this station are not official NWS values.
T = Trace of Precipitation, MM = Missing Value Source: NWS Daily Summary

Daily Weather History Graph

Daily Weather History Graph

Search for Another Location

Airport or City:

Trip Planner

Search our weather history database for the weather conditions in past years. The results will help you decide how hot, cold, wet, or windy it might be!

Date:

Astronomy

Aug. 07, 2014 Rise Set
Actual Time 6:01 AM EDT 8:06 PM EDT
Civil Twilight 5:31 AM EDT 8:36 PM EDT
Nautical Twilight 4:54 AM EDT 9:13 PM EDT
Astronomical Twilight 4:14 AM EDT 9:53 PM EDT
Moon 5:21 PM EDT (8/7) 2:28 AM EDT (8/7)
Length of Visible Light 15h 05m
Length of Day
14h 05m
Waxing Gibbous, 86% of the Moon is Illuminated
Aug 7
Waxing Gibbous
Aug 10
Full
Aug 17
Last Quarter
Aug 25
New
Sep 2
First Quarter

Hourly Weather History & Observations

Time (EDT) Temp. Heat Index Dew Point Humidity Pressure Visibility Wind Dir Wind Speed Gust Speed Precip Events Conditions
12:53 AM 64.9 °F - 59.0 °F 81% 29.91 in 10.0 mi Calm Calm - N/A   Mostly Cloudy
1:53 AM 61.0 °F - 57.9 °F 90% 29.91 in 10.0 mi Calm Calm - N/A   Partly Cloudy
2:53 AM 61.0 °F - 55.0 °F 81% 29.91 in 10.0 mi NNW 4.6 mph - N/A   Clear
3:53 AM 57.9 °F - 54.0 °F 87% 29.91 in 10.0 mi Calm Calm - N/A   Clear
4:53 AM 57.0 °F - 54.0 °F 89% 29.91 in 10.0 mi Calm Calm - N/A   Clear
5:53 AM 57.0 °F - 53.1 °F 87% 29.92 in 10.0 mi NW 4.6 mph - N/A   Clear
6:53 AM 57.0 °F - 53.1 °F 87% 29.94 in 8.0 mi Calm Calm - N/A   Clear
7:53 AM 66.0 °F - 54.0 °F 65% 29.95 in 10.0 mi NW 5.8 mph - N/A   Clear
8:53 AM 70.0 °F - 54.0 °F 57% 29.96 in 10.0 mi NNW 8.1 mph - N/A   Clear
9:53 AM 73.0 °F - 54.0 °F 51% 29.96 in 10.0 mi NNW 10.4 mph - N/A   Clear
10:53 AM 75.9 °F - 55.9 °F 50% 29.96 in 10.0 mi NNW 10.4 mph - N/A   Clear
11:53 AM 79.0 °F - 54.0 °F 42% 29.95 in 10.0 mi Variable 6.9 mph - N/A   Clear
12:53 PM 80.1 °F 80.0 °F 54.0 °F 40% 29.94 in 10.0 mi NNW 11.5 mph 18.4 mph N/A   Clear
1:53 PM 81.0 °F 80.4 °F 53.1 °F 38% 29.93 in 10.0 mi North 8.1 mph - N/A   Scattered Clouds
2:53 PM 82.9 °F - 52.0 °F 34% 29.92 in 10.0 mi NNW 12.7 mph 19.6 mph N/A   Partly Cloudy
3:53 PM 84.0 °F - 51.1 °F 32% 29.91 in 10.0 mi North 8.1 mph - N/A   Scattered Clouds
4:53 PM 82.9 °F - 50.0 °F 32% 29.91 in 10.0 mi NW 12.7 mph - N/A   Clear
5:53 PM 82.0 °F - 50.0 °F 33% 29.92 in 10.0 mi Variable 6.9 mph - N/A   Clear
6:53 PM 80.1 °F - 52.0 °F 38% 29.93 in 10.0 mi North 5.8 mph - N/A   Clear
10:53 PM 61.0 °F - 54.0 °F 78% 30.01 in 9.0 mi Calm Calm - N/A   Clear
11:53 PM 59.0 °F - 54.0 °F 83% 30.02 in 10.0 mi Calm Calm - N/A   Clear